"Date","Attempts","Unique users","Unique hosts"
11/19/08,93,7,76
11/20/08,1117,1,476
11/21/08,1156,3,480
11/22/08,1969,231,388
11/23/08,2224,431,342
11/24/08,1826,368,300
11/25/08,1364,294,233
11/26/08,1098,244,198
11/27/08,1008,218,174
11/28/08,917,191,152
11/29/08,1214,248,282
11/30/08,1326,274,262
12/01/08,1019,216,216
12/02/08,980,201,190
12/03/08,847,180,166
12/04/08,756,155,139
12/05/08,641,136,125
12/06/08,320,132,121
12/07/08,312,128,112
12/08/08,277,117,104
12/09/08,509,103,89
12/10/08,479,97,89
12/11/08,320,136,156
12/12/08,784,173,153
12/13/08,357,153,123
12/14/08,672,143,115
12/15/08,561,130,105
12/16/08,538,116,99
12/17/08,460,105,88
12/18/08,365,85,64
12/19/08,304,68,54
12/20/08,290,67,49
12/21/08,237,61,41
12/22/08,223,56,42
12/23/08,216,53,33
12/24/08,75,17,13
12/25/08,69,16,14
12/26/08,62,14,11
12/27/08,1725,390,472
12/28/08,589,158,70
12/29/08,437,129,61
12/30/08,180,51,39
